When you browse on this site, cookies collect data to enhance your experience and personalize the content and advertising you see.
Visit our Privacy Policy to learn more. By continuing to use the site, you agree to this use of cookies and data.
  • en France
  • Liste des pays
  • À 7 jours
  • Température de l'eau
  • Carte satellitaire
  • Carte météo
  • Widgets météo
  • user-avatar
    Se connecter

    Météo par heure à Hérât

    Ce jour, 26 Avril, Vendredi

    Heure Température Précipitation Vent Pression Humidité
    00:00 +8°C° 0 mm 5 m/s 683 mmHg 56%
    01:00 +8°C° 0 mm 5 m/s 683 mmHg 56%
    02:00 +8°C° 0 mm 5 m/s 683 mmHg 56%
    03:00 +7°C° 0 mm 4 m/s 682 mmHg 56%
    04:00 +6°C° 0 mm 5 m/s 682 mmHg 56%
    05:00 +7°C° 0 mm 5 m/s 683 mmHg 52%
    06:00 +8°C° 0 mm 5 m/s 683 mmHg 49%
    07:00 +8°C° 0 mm 5 m/s 683 mmHg 46%
    08:00 +10°C° 0 mm 5 m/s 683 mmHg 41%
    09:00 +13°C° 0 mm 5 m/s 683 mmHg 36%
    10:00 +14°C° 0 mm 5 m/s 684 mmHg 31%
    11:00 +15°C° 0 mm 5 m/s 683 mmHg 30%
    12:00 +16°C° 0 mm 5 m/s 683 mmHg 28%
    13:00 +17°C° 0 mm 5 m/s 683 mmHg 26%
    14:00 +19°C° 0 mm 5 m/s 683 mmHg 27%
    15:00 +19°C° 0 mm 5 m/s 683 mmHg 29%
    16:00 +19°C° 0 mm 5 m/s 682 mmHg 30%
    17:00 +17°C° 0 mm 5 m/s 682 mmHg 35%
    18:00 +15°C° 0 mm 6 m/s 682 mmHg 39%
    19:00 +14°C° 0 mm 6 m/s 682 mmHg 44%
    20:00 +14°C° 0 mm 6 m/s 682 mmHg 45%
    21:00 +13°C° 0 mm 5 m/s 683 mmHg 46%
    22:00 +13°C° 0 mm 5 m/s 683 mmHg 47%
    23:00 +12°C° 0 mm 4 m/s 683 mmHg 48%

    Demain, 27 Avril, Samedi

    Heure Température Précipitation Vent Pression Humidité
    00:00 +12°C° 0 mm 4 m/s 682 mmHg 49%
    01:00 +11°C° 0 mm 3 m/s 682 mmHg 50%
    02:00 +11°C° 0 mm 3 m/s 682 mmHg 51%
    03:00 +10°C° 0 mm 3 m/s 682 mmHg 51%
    04:00 +10°C° 0 mm 3 m/s 682 mmHg 51%
    05:00 +11°C° 0 mm 3 m/s 682 mmHg 48%
    06:00 +11°C° 0 mm 3 m/s 683 mmHg 45%
    07:00 +12°C° 0 mm 3 m/s 683 mmHg 42%
    08:00 +14°C° 0 mm 3 m/s 683 mmHg 38%
    09:00 +17°C° 0 mm 4 m/s 683 mmHg 34%
    10:00 +18°C° 0 mm 4 m/s 684 mmHg 30%
    11:00 +19°C° 0 mm 4 m/s 683 mmHg 28%
    12:00 +20°C° 0 mm 4 m/s 683 mmHg 27%
    13:00 +21°C° 0 mm 4 m/s 683 mmHg 25%
    14:00 +21°C° 0 mm 4 m/s 683 mmHg 26%
    15:00 +21°C° 0 mm 5 m/s 683 mmHg 27%
    16:00 +21°C° 0 mm 5 m/s 682 mmHg 27%
    17:00 +20°C° 0 mm 5 m/s 682 mmHg 31%
    18:00 +19°C° 0 mm 5 m/s 682 mmHg 35%
    19:00 +17°C° 0 mm 5 m/s 682 mmHg 39%
    20:00 +17°C° 0 mm 4 m/s 682 mmHg 41%
    21:00 +15°C° 0 mm 4 m/s 682 mmHg 43%
    22:00 +16°C° 0 mm 3 m/s 682 mmHg 45%
    23:00 +14°C° 0 mm 3 m/s 682 mmHg 46%

    Après-demain, 28 Avril, Dimanche

    Heure Température Précipitation Vent Pression Humidité
    00:00 +14°C° 0 mm 3 m/s 682 mmHg 47%
    01:00 +14°C° 0 mm 2 m/s 682 mmHg 49%
    02:00 +14°C° 0 mm 2 m/s 681 mmHg 49%
    03:00 +13°C° 0 mm 2 m/s 681 mmHg 49%
    04:00 +13°C° 0 mm 2 m/s 681 mmHg 49%
    05:00 +14°C° 0 mm 2 m/s 681 mmHg 46%
    06:00 +15°C° 0 mm 2 m/s 681 mmHg 43%
    07:00 +15°C° 0 mm 2 m/s 682 mmHg 40%
    08:00 +17°C° 0 mm 2 m/s 682 mmHg 35%
    09:00 +20°C° 0 mm 1 m/s 682 mmHg 30%
    10:00 +21°C° 0 mm 1 m/s 682 mmHg 24%
    11:00 +22°C° 0 mm 1 m/s 682 mmHg 22%
    12:00 +23°C° 0 mm 2 m/s 682 mmHg 20%
    13:00 +24°C° 0 mm 2 m/s 681 mmHg 19%
    14:00 +25°C° 0 mm 2 m/s 681 mmHg 18%
    15:00 +25°C° 0 mm 2 m/s 680 mmHg 18%
    16:00 +25°C° 0 mm 2 m/s 680 mmHg 17%
    17:00 +24°C° 0 mm 2 m/s 680 mmHg 21%
    18:00 +23°C° 0 mm 2 m/s 679 mmHg 25%
    19:00 +21°C° 0 mm 2 m/s 679 mmHg 29%
    20:00 +20°C° 0 mm 2 m/s 679 mmHg 31%
    21:00 +20°C° 0 mm 2 m/s 679 mmHg 33%
    22:00 +19°C° 0 mm 2 m/s 679 mmHg 34%
    23:00 +19°C° 0 mm 2 m/s 679 mmHg 35%

    29 Avril, Lundi

    Heure Température Précipitation Vent Pression Humidité
    00:00 +19°C° 0 mm 2 m/s 678 mmHg 35%
    01:00 +19°C° 0 mm 1 m/s 678 mmHg 35%
    02:00 +19°C° 0 mm 1 m/s 678 mmHg 37%
    03:00 +19°C° 0 mm 1 m/s 678 mmHg 38%
    04:00 +19°C° 0 mm 1 m/s 678 mmHg 39%
    05:00 +18°C° 0 mm 2 m/s 678 mmHg 37%
    06:00 +19°C° 0 mm 3 m/s 678 mmHg 35%
    07:00 +19°C° 0 mm 4 m/s 678 mmHg 33%
    08:00 +20°C° 0 mm 3 m/s 679 mmHg 32%
    09:00 +20°C° 0 mm 3 m/s 679 mmHg 31%
    10:00 +21°C° 0 mm 2 m/s 679 mmHg 29%
    11:00 +22°C° 0 mm 3 m/s 679 mmHg 29%
    12:00 +23°C° 0 mm 4 m/s 679 mmHg 29%
    13:00 +25°C° 0 mm 5 m/s 679 mmHg 28%
    14:00 +23°C° 0 mm 5 m/s 678 mmHg 32%
    15:00 +22°C° 0 mm 5 m/s 678 mmHg 37%
    16:00 +21°C° 0 mm 6 m/s 678 mmHg 41%
    17:00 +20°C° 0.1 mm 4 m/s 678 mmHg 44%
    18:00 +19°C° 0.1 mm 3 m/s 678 mmHg 48%
    19:00 +18°C° 0.1 mm 2 m/s 679 mmHg 51%
    20:00 +19°C° 0 mm 1 m/s 679 mmHg 54%
    21:00 +18°C° 0 mm 1 m/s 679 mmHg 57%
    22:00 +18°C° 0 mm 1 m/s 679 mmHg 60%
    23:00 +16°C° 0 mm 1 m/s 679 mmHg 61%

    30 Avril, Mardi

    Heure Température Précipitation Vent Pression Humidité
    00:00 +16°C° 0 mm 1 m/s 679 mmHg 61%
    01:00 +15°C° 0 mm 1 m/s 679 mmHg 62%
    02:00 +15°C° 0 mm 1 m/s 679 mmHg 62%
    03:00 +15°C° 0 mm 1 m/s 679 mmHg 61%
    04:00 +14°C° 0 mm 1 m/s 679 mmHg 60%
    05:00 +15°C° 0 mm 2 m/s 679 mmHg 54%
    06:00 +16°C° 0 mm 2 m/s 680 mmHg 49%
    07:00 +17°C° 0 mm 2 m/s 681 mmHg 43%
    08:00 +19°C° 0 mm 2 m/s 681 mmHg 37%
    09:00 +20°C° 0 mm 2 m/s 681 mmHg 30%
    10:00 +23°C° 0 mm 2 m/s 681 mmHg 23%
    11:00 +24°C° 0 mm 2 m/s 681 mmHg 22%
    12:00 +25°C° 0 mm 2 m/s 681 mmHg 20%
    13:00 +25°C° 0 mm 2 m/s 681 mmHg 18%
    14:00 +26°C° 0 mm 3 m/s 680 mmHg 18%
    15:00 +26°C° 0 mm 4 m/s 680 mmHg 18%
    16:00 +26°C° 0 mm 4 m/s 680 mmHg 18%
    17:00 +25°C° 0 mm 4 m/s 680 mmHg 22%
    18:00 +23°C° 0 mm 4 m/s 680 mmHg 25%
    19:00 +21°C° 0 mm 4 m/s 680 mmHg 29%
    20:00 +20°C° 0 mm 3 m/s 680 mmHg 31%
    21:00 +20°C° 0 mm 3 m/s 680 mmHg 33%
    22:00 +19°C° 0 mm 2 m/s 680 mmHg 35%
    23:00 +18°C° 0 mm 2 m/s 680 mmHg 35%

    1 Mai, Mercredi

    Heure Température Précipitation Vent Pression Humidité
    00:00 +18°C° 0 mm 2 m/s 679 mmHg 35%
    01:00 +17°C° 0 mm 2 m/s 679 mmHg 35%
    02:00 +17°C° 0 mm 2 m/s 679 mmHg 33%
    03:00 +16°C° 0 mm 2 m/s 679 mmHg 32%
    04:00 +16°C° 0 mm 2 m/s 678 mmHg 30%
    05:00 +17°C° 0 mm 2 m/s 679 mmHg 28%
    06:00 +18°C° 0 mm 3 m/s 679 mmHg 26%
    07:00 +19°C° 0 mm 3 m/s 679 mmHg 24%
    08:00 +21°C° 0 mm 3 m/s 680 mmHg 21%
    09:00 +22°C° 0 mm 3 m/s 680 mmHg 18%
    10:00 +25°C° 0 mm 2 m/s 680 mmHg 15%
    11:00 +26°C° 0 mm 3 m/s 680 mmHg 14%
    12:00 +27°C° 0 mm 3 m/s 680 mmHg 14%
    13:00 +28°C° 0 mm 3 m/s 679 mmHg 13%
    14:00 +28°C° 0 mm 4 m/s 679 mmHg 14%
    15:00 +28°C° 0 mm 4 m/s 679 mmHg 14%
    16:00 +28°C° 0 mm 4 m/s 678 mmHg 15%
    17:00 +26°C° 0 mm 4 m/s 678 mmHg 18%
    18:00 +25°C° 0 mm 4 m/s 678 mmHg 21%
    19:00 +23°C° 0 mm 4 m/s 678 mmHg 24%
    20:00 +22°C° 0 mm 3 m/s 678 mmHg 25%
    21:00 +21°C° 0 mm 3 m/s 678 mmHg 27%
    22:00 +20°C° 0 mm 2 m/s 678 mmHg 28%
    23:00 +20°C° 0 mm 2 m/s 678 mmHg 28%
    Voir plus